Home > Weather > Aalen > Past weeks

Flag for Germany Past Weather in Aalen, Baden-Württemberg, Germany — Yesterday and Last 2 Weeks

Now
75 °F

Scattered clouds.


Feels Like: 77 °F
Forecast: 59 / 74 °F
Wind: 5 mph from Northwest

Location: Niederstetten

Current Time: Jul 26, 2016 at 12:31:18 PM

Latest Report: Jul 26, 2016 at 11:20 AM


Visibility: N/A

Pressure: 30.15 "Hg

Humidity: 65%

Dew Point: 63 °F

Location of AalenLocation

Past Weather in Aalen — Graph

°F

Aalen Temperature Yesterday

Maximum temperature yesterday: 77 °F (at 6:20 PM)
Minimum temperature yesterday: 63 °F (at 2:20 AM)
Average temperature yesterday: 69 °F

High & Low Weather Summary for the Past Weeks

 TemperatureHumidityPressure
High88 °F (Jul 20, 3:20 PM)100% (Jul 22, 12:20 AM)30.33 "Hg (Jul 22, 12:20 AM)
Low48 °F (Jul 15, 6:20 AM)29% (Jul 20, 4:20 PM)29.92 "Hg (Jul 11, 2:20 PM)
Average66 °F72%30.10 "Hg
* Reported Jul 11 11:20 AM — Jul 26 11:20 AM, Aalen, Weather by CustomWeather, © 2016

Note: Actual official high and low records may vary slightly from our data, if they occured in-between our weather recording intervals... More about our weather records

Advertising

Aalen Weather History for the Previous 24 Hours

Scroll right to see more
 ConditionsComfort  
Time TempWeatherWind HumidityBarometerVisibility
11:20 AM
Tue, Jul 26
75 °FScattered clouds.5 mph65%30.15 "HgN/A
10:20 AM70 °FPartly sunny.3 mph78%30.15 "HgN/A
9:20 AM70 °FPartly sunny.6 mph78%30.15 "HgN/A
8:20 AM68 °FPartly sunny.3 mph78%30.12 "HgN/A
7:20 AM66 °FBroken clouds.3 mph83%30.12 "HgN/A
6:20 AM64 °FPartly cloudy.2 mph88%30.12 "HgN/A
5:20 AM66 °FPassing clouds.2 mph83%30.12 "HgN/A
4:20 AM66 °FPassing clouds.3 mph83%30.12 "HgN/A
3:20 AM66 °FPassing clouds.2 mph88%30.12 "HgN/A
2:20 AM66 °FPassing clouds.2 mph88%30.12 "HgN/A
1:20 AM66 °FPassing clouds.2 mph88%30.12 "HgN/A
12:20 AM70 °FPassing clouds.2 mph78%30.12 "HgN/A
11:20 PM
Mon, Jul 25
68 °FPassing clouds.No wind83%30.12 "HgN/A
10:20 PM70 °FPassing clouds.1 mph83%30.12 "HgN/A
9:20 PM72 °FPartly sunny.3 mph73%30.12 "HgN/A
8:20 PM73 °FScattered clouds.1 mph74%30.12 "HgN/A
7:20 PM73 °FScattered clouds.3 mph69%30.09 "HgN/A
6:20 PM77 °FScattered clouds.6 mph61%30.09 "HgN/A
5:20 PM75 °FPartly sunny.12 mph61%30.09 "HgN/A
4:20 PM75 °FBroken clouds.8 mph69%30.09 "HgN/A
3:20 PM73 °FPartly sunny.8 mph78%30.09 "HgN/A
2:20 PM72 °FPartly sunny.5 mph83%30.09 "HgN/A
1:20 PM75 °FScattered showers. Broken clouds.9 mph65%30.09 "Hg5 mi
12:20 PM73 °FPartly sunny.9 mph69%30.09 "HgN/A
Weather by CustomWeather, © 2016

See weather overviewHow to use our weather pages